Location: Costa Mesa
(33.6411°N, 117.9187°W)
Time: 03:22:13
(UTC+00:00)

Cosmos 468 Rocket - Pass Details

Date: 10 September 2024
Orbit: 741 x 776 km, 74.0° (Epoch: 10 October)

Event Time Altitude Azimuth Distance (km) Brightness Sun altitude
Rises 12:18:27 0° 342° (NNW) 3,221 7.2 -15.8°
Reaches altitude 10° 12:20:49 10° 342° (NNW) 2,298 6.5 -15.4°
Maximum altitude 12:26:03 87° 255° (WSW) 772 3.9 -14.3°
Drops below altitude 10° 12:31:18 10° 166° (SSE) 2,306 6.5 -13.3°
Sets 12:33:40 0° 166° (SSE) 3,233 7.2 -12.8°
